Find Starlink 31732

NORAD ID: 60099 Int'l Des: 2024-117 Owner: SPXS Country: US Constellation: starlink operational
LEOCIRCULAR

Current View

Loading 3D Globe...

About Starlink 31732

Starlink 31732 (NORAD 60099) is a starlink constellation satellite (v2 mini) launched Jun 23, 2024 by SPXS of US. It operates in LEO, CIRCULAR orbit with a mass of 730.00 kg.

Upcoming Passes

Passes for default location (London). Set your location on the main map for personalized predictions.

Altitude History

Loading altitude history...

Two-Line Element Set

1 60099U 24117J 26265.22000576 .00191555 00000-0 52881-2 0 9994
2 60099 53.1594 201.5971 0015560 42.5474 317.6732 15.35743495127017
Epoch: Sep 22, 2026 • Age: 7 hours

Current Status

Altitude 459.0 km
Apogee / Perigee N/A
Velocity 7.65 km/s
Sub-Earth Point 51.94°N, 127.36°E
Launch Date Jun 23, 2024
Age 2.2 years
Type internet

Technical Details

Classification Payload
Mass 730.00 kg
Dry Mass 700.00 kg
Length 0.30 m
Span 29.00 m
Shape ? Box + pan
Manufacturer SPXS
Bus Type Starlink V2M
Phase Status In Orbit
Owner/State SPXS/US

Most Searched